This is the latest recevied weather packets stored in our database for station/object K0SNA. If no packets are shown the sender has not sent any weather packets the latest 10 day(s).
| Time | Temp. | Humidity | Pressure | Rain* | Wind** | Luminosity | Snow |
|---|---|---|---|---|---|---|---|
| 1777829680 | 20° C | 37% | 1007.2 hPa | 0 mm | - | 687 W/m² | - |
| 1777829377 | 19.44° C | 37% | 1007.1 hPa | 0 mm | - | 687 W/m² | - |
| 1777829074 | 19.44° C | 37% | 1007.2 hPa | 0 mm | - | 685 W/m² | - |
| 1777828771 | 20° C | 38% | 1007.1 hPa | 0 mm | - | 680 W/m² | - |
| 1777828468 | 19.44° C | 39% | 1007.2 hPa | 0 mm | - | 679 W/m² | - |
| 1777828165 | 20° C | 39% | 1007.2 hPa | 0 mm | - | 675 W/m² | - |
| 1777827861 | 19.44° C | 39% | 1007.2 hPa | 0 mm | - | 668 W/m² | - |
| 1777827559 | 19.44° C | 39% | 1007.3 hPa | 0 mm | - | 666 W/m² | - |
| 1777827256 | 19.44° C | 37% | 1007.3 hPa | 0 mm | - | 661 W/m² | - |
| 1777826952 | 19.44° C | 39% | 1007.2 hPa | 0 mm | - | 654 W/m² | - |
| 1777826649 | 19.44° C | 38% | 1007.3 hPa | 0 mm | - | 648 W/m² | - |
| 1777826345 | 19.44° C | 39% | 1007.2 hPa | 0 mm | - | 644 W/m² | - |
| 1777826044 | 18.89° C | 40% | 1007.3 hPa | 0 mm | - | 636 W/m² | - |
| 1777825740 | 19.44° C | 38% | 1007.1 hPa | 0 mm | - | 631 W/m² | - |
| 1777825438 | 18.89° C | 39% | 1007.2 hPa | 0 mm | - | 628 W/m² | - |
| 1777825134 | 18.89° C | 39% | 1007 hPa | 0 mm | - | 621 W/m² | - |
| 1777824831 | 18.33° C | 40% | 1007 hPa | 0 mm | - | 612 W/m² | - |
| 1777824528 | 18.89° C | 39% | 1007.2 hPa | 0 mm | - | 605 W/m² | - |
| 1777824224 | 18.33° C | 39% | 1007.2 hPa | 0 mm | - | 598 W/m² | - |
| 1777823919 | 18.33° C | 39% | 1007 hPa | 0 mm | - | 588 W/m² | - |
| 1777823617 | 18.33° C | 40% | 1007 hPa | 0 mm | - | 576 W/m² | - |
| 1777823314 | 18.89° C | 42% | 1007.1 hPa | 0 mm | - | 565 W/m² | - |
| 1777823012 | 18.33° C | 42% | 1007.1 hPa | 0 mm | - | 559 W/m² | - |
| 1777822709 | 17.78° C | 41% | 1007.1 hPa | 0 mm | - | 548 W/m² | - |
| 1777822407 | 17.78° C | 41% | 1007.2 hPa | 0 mm | - | 538 W/m² | - |
* Rain latest hour (hover to see other rain measurements)
** Current wind speed in m/s (hover to see current wind gust speed)